Location: Shepherdstown, WV
(39.4326°N, 77.8042°W)
Time: 22:59:59
(UTC-04:00)

Vanguard 1 - Pass Details

Date: 07 August 2021
Orbit: 652 x 3831 km, 34.3° (Epoch: 17 September)

Event Time Altitude Azimuth Distance (km) Brightness Sun altitude
Rises 13:17:13 0° 268° (W) 3,067 12.6 66.8°
Reaches altitude 10° 13:19:19 10° 261° (W) 2,271 12.2 66.8°
Maximum altitude 13:24:10 45° 189° (S) 1,291 12.3 66.7°
Drops below altitude 10° 13:31:49 10° 120° (ESE) 3,554 13.2 66.5°
Sets 13:35:57 0° 115° (ESE) 5,043 13.8 66.4°
